TimeEDT,TemperatureF,Dew PointF,Humidity,Sea Level PressureIn,VisibilityMPH,Wind Direction,Wind SpeedMPH,Gust SpeedMPH,PrecipitationIn,Events,Conditions,WindDirDegrees,DateUTC
12:15 AM,48.2,46.4,93,29.90,10.0,West,19.6,24.2,N/A,,Mostly Cloudy,280,2013-05-12 04:15:00
12:35 AM,48.2,46.4,93,29.90,10.0,West,20.7,28.8,N/A,,Mostly Cloudy,280,2013-05-12 04:35:00
12:55 AM,48.2,46.4,93,29.90,10.0,West,16.1,28.8,N/A,,Mostly Cloudy,280,2013-05-12 04:55:00
1:15 AM,48.2,46.4,93,29.89,10.0,WNW,15.0,28.8,N/A,,Overcast,290,2013-05-12 05:15:00
1:35 AM,48.2,42.8,82,29.89,10.0,West,20.7,27.6,N/A,,Scattered Clouds,280,2013-05-12 05:35:00
1:55 AM,46.4,42.8,87,29.89,10.0,WNW,18.4,27.6,N/A,,Scattered Clouds,290,2013-05-12 05:55:00
2:15 AM,46.4,39.2,76,29.90,10.0,WNW,18.4,27.6,N/A,,Scattered Clouds,290,2013-05-12 06:15:00
2:35 AM,44.6,37.4,76,29.89,10.0,WNW,17.3,26.5,N/A,,Clear,290,2013-05-12 06:35:00
2:55 AM,44.6,37.4,76,29.89,10.0,WNW,18.4,29.9,N/A,,Clear,300,2013-05-12 06:55:00
3:15 AM,44.6,39.2,81,29.88,10.0,WNW,19.6,26.5,N/A,,Scattered Clouds,290,2013-05-12 07:15:00
3:35 AM,44.6,39.2,81,29.88,10.0,WNW,13.8,26.5,N/A,,Scattered Clouds,290,2013-05-12 07:35:00
3:55 AM,42.8,39.2,87,29.89,10.0,WNW,16.1,-,N/A,,Scattered Clouds,290,2013-05-12 07:55:00
4:15 AM,42.8,39.2,87,29.89,10.0,West,12.7,-,N/A,,Overcast,280,2013-05-12 08:15:00
4:35 AM,44.6,41.0,87,29.88,10.0,West,11.5,-,N/A,,Overcast,280,2013-05-12 08:35:00
4:55 AM,44.6,41.0,87,29.88,10.0,West,11.5,17.3,N/A,,Overcast,270,2013-05-12 08:55:00
5:35 AM,42.8,42.8,100,29.88,7.0,West,11.5,18.4,N/A,,Overcast,280,2013-05-12 09:35:00
5:55 AM,42.8,42.8,100,29.88,0.2,West,16.1,24.2,N/A,Rain,Light Rain,280,2013-05-12 09:55:00
6:15 AM,42.8,42.8,100,29.88,0.2,WNW,16.1,23.0,N/A,Rain,Light Rain,300,2013-05-12 10:15:00
6:35 AM,39.2,39.2,100,29.90,2.0,NW,15.0,21.9,N/A,,Overcast,310,2013-05-12 10:35:00
6:55 AM,39.2,35.6,87,29.90,10.0,NW,16.1,25.3,N/A,,Overcast,310,2013-05-12 10:55:00
7:15 AM,37.4,33.8,87,29.90,10.0,NW,12.7,24.2,N/A,,Scattered Clouds,310,2013-05-12 11:15:00
7:35 AM,37.4,33.8,87,29.91,10.0,WNW,16.1,25.3,N/A,,Clear,300,2013-05-12 11:35:00
7:55 AM,39.2,32.0,75,29.91,10.0,WNW,15.0,26.5,N/A,,Clear,300,2013-05-12 11:55:00
8:15 AM,39.2,32.0,75,29.91,10.0,WNW,10.4,19.6,N/A,,Clear,300,2013-05-12 12:15:00
8:35 AM,39.2,30.2,70,29.91,10.0,WNW,16.1,23.0,N/A,,Clear,290,2013-05-12 12:35:00
8:55 AM,41.0,30.2,65,29.92,10.0,WNW,15.0,20.7,N/A,,Clear,290,2013-05-12 12:55:00
9:15 AM,42.8,30.2,61,29.91,10.0,WNW,18.4,26.5,N/A,,Clear,300,2013-05-12 13:15:00
9:35 AM,42.8,30.2,61,29.91,10.0,WNW,21.9,31.1,N/A,,Clear,290,2013-05-12 13:35:00
9:55 AM,42.8,28.4,57,29.91,10.0,WNW,23.0,35.7,N/A,,Clear,290,2013-05-12 13:55:00
10:15 AM,42.8,26.6,53,29.91,10.0,WNW,24.2,33.4,N/A,,Clear,290,2013-05-12 14:15:00
10:35 AM,42.8,26.6,53,29.92,10.0,West,20.7,34.5,N/A,,Clear,280,2013-05-12 14:35:00
10:55 AM,42.8,26.6,53,29.92,10.0,WNW,13.8,27.6,N/A,,Clear,300,2013-05-12 14:55:00
11:15 AM,42.8,26.6,53,29.93,10.0,NW,15.0,24.2,N/A,,Clear,310,2013-05-12 15:15:00
11:35 AM,44.6,28.4,53,29.94,10.0,WNW,18.4,26.5,N/A,,Scattered Clouds,290,2013-05-12 15:35:00
11:55 AM,44.6,28.4,53,29.94,10.0,West,17.3,26.5,N/A,,Scattered Clouds,280,2013-05-12 15:55:00
12:15 PM,44.6,28.4,53,29.94,10.0,West,18.4,27.6,N/A,,Clear,280,2013-05-12 16:15:00
12:35 PM,44.6,26.6,49,29.94,10.0,WNW,17.3,25.3,N/A,,Clear,290,2013-05-12 16:35:00
12:55 PM,46.4,26.6,46,29.95,10.0,West,17.3,23.0,N/A,,Clear,280,2013-05-12 16:55:00
1:15 PM,46.4,26.6,46,29.96,10.0,West,19.6,25.3,N/A,,Clear,280,2013-05-12 17:15:00
1:35 PM,46.4,26.6,46,29.95,10.0,West,20.7,27.6,N/A,,Clear,280,2013-05-12 17:35:00
1:55 PM,46.4,26.6,46,29.96,10.0,NW,17.3,24.2,N/A,,Scattered Clouds,310,2013-05-12 17:55:00
2:15 PM,46.4,26.6,46,29.96,10.0,NW,11.5,25.3,N/A,,Scattered Clouds,310,2013-05-12 18:15:00
2:35 PM,46.4,26.6,46,29.97,10.0,West,10.4,26.5,N/A,,Scattered Clouds,280,2013-05-12 18:35:00
2:55 PM,46.4,26.6,46,29.97,10.0,NW,12.7,29.9,N/A,,Scattered Clouds,310,2013-05-12 18:55:00
3:15 PM,46.4,26.6,46,29.97,10.0,West,16.1,24.2,N/A,,Scattered Clouds,280,2013-05-12 19:15:00
3:35 PM,46.4,26.6,46,29.98,10.0,West,18.4,25.3,N/A,,Scattered Clouds,280,2013-05-12 19:35:00
3:55 PM,46.4,26.6,46,29.97,10.0,WNW,13.8,21.9,N/A,,Scattered Clouds,300,2013-05-12 19:55:00
4:15 PM,46.4,24.8,43,29.97,10.0,West,23.0,31.1,N/A,,Clear,280,2013-05-12 20:15:00
4:35 PM,44.6,24.8,46,29.98,10.0,WNW,12.7,24.2,N/A,,Scattered Clouds,290,2013-05-12 20:35:00
4:55 PM,46.4,26.6,46,29.99,10.0,WNW,16.1,25.3,N/A,,Scattered Clouds,290,2013-05-12 20:55:00
5:15 PM,44.6,24.8,46,29.98,10.0,NW,13.8,25.3,N/A,,Scattered Clouds,310,2013-05-12 21:15:00
5:35 PM,44.6,24.8,46,29.99,10.0,WNW,15.0,26.5,N/A,,Mostly Cloudy,290,2013-05-12 21:35:00
5:55 PM,44.6,24.8,46,30.00,10.0,NW,15.0,31.1,N/A,,Mostly Cloudy,310,2013-05-12 21:55:00
6:15 PM,44.6,26.6,49,30.00,10.0,WNW,15.0,25.3,N/A,,Mostly Cloudy,290,2013-05-12 22:15:00
6:35 PM,44.6,24.8,46,29.99,10.0,WNW,11.5,20.7,N/A,,Mostly Cloudy,290,2013-05-12 22:35:00
6:55 PM,44.6,24.8,46,30.00,10.0,WNW,13.8,29.9,N/A,,Mostly Cloudy,290,2013-05-12 22:55:00
7:15 PM,42.8,24.8,49,30.01,10.0,WNW,11.5,17.3,N/A,,Mostly Cloudy,300,2013-05-12 23:15:00
7:35 PM,42.8,24.8,49,30.02,10.0,WNW,12.7,20.7,N/A,,Mostly Cloudy,290,2013-05-12 23:35:00
7:55 PM,42.8,24.8,49,30.02,10.0,WNW,15.0,26.5,N/A,,Scattered Clouds,300,2013-05-12 23:55:00
8:15 PM,41.0,24.8,53,30.02,10.0,West,12.7,21.9,N/A,,Clear,280,2013-05-13 00:15:00
8:35 PM,41.0,26.6,57,30.03,10.0,WNW,10.4,18.4,N/A,,Clear,300,2013-05-13 00:35:00
8:55 PM,39.2,26.6,61,30.04,10.0,WNW,13.8,19.6,N/A,,Clear,290,2013-05-13 00:55:00
9:15 PM,39.2,26.6,61,30.04,10.0,West,10.4,17.3,N/A,,Clear,280,2013-05-13 01:15:00
9:35 PM,39.2,26.6,61,30.05,10.0,West,11.5,17.3,N/A,,Clear,280,2013-05-13 01:35:00
9:55 PM,39.2,26.6,61,30.06,10.0,West,8.1,17.3,N/A,,Clear,270,2013-05-13 01:55:00
10:15 PM,37.4,26.6,65,30.07,10.0,West,10.4,17.3,N/A,,Clear,280,2013-05-13 02:15:00
10:35 PM,37.4,26.6,65,30.07,10.0,West,11.5,19.6,N/A,,Clear,280,2013-05-13 02:35:00
10:55 PM,37.4,26.6,65,30.06,10.0,West,11.5,19.6,N/A,,Scattered Clouds,280,2013-05-13 02:55:00
11:15 PM,37.4,26.6,65,30.06,10.0,WNW,16.1,-,N/A,,Scattered Clouds,290,2013-05-13 03:15:00
11:35 PM,37.4,26.6,65,30.05,10.0,WNW,18.4,25.3,N/A,,Clear,290,2013-05-13 03:35:00
11:55 PM,37.4,26.6,65,30.05,10.0,WNW,17.3,24.2,N/A,,Clear,290,2013-05-13 03:55:00